�N����,����,�~����,�C��,���x,�C��,����,���ϕ���,�ő�u�ԕ���,�ő厞����,���˗�,�I�_���x,�n�����x,�ő啗���N��,DTYPE
"23/11/16","00:10",0.0,8.5,94.7,1021.3,299.6,1.7,2.7,321.1,0.00,7.7,12.7,"00:05:44",1
"23/11/16","00:20",0.0,8.7,94.9,1020.8,280.5,1.7,2.1,276.7,0.00,8.0,12.9,"00:17:28",1
"23/11/16","00:30",0.0,8.6,94.9,1021.1,285.9,1.2,2.2,308.3,0.00,7.9,12.6,"00:22:00",1
"23/11/16","00:40",0.0,8.5,95.1,1021.5,282.4,1.7,2.0,314.6,0.00,7.8,12.7,"00:31:20",1
"23/11/16","00:50",0.0,8.5,95.2,1021.3,278.0,1.5,2.2,258.3,0.00,7.8,12.7,"00:44:08",1
"23/11/16","01:00",0.0,8.2,95.3,1021.3,299.8,1.8,2.9,320.1,0.00,7.5,12.7,"00:56:48",1
"23/11/16","01:10",0.0,8.0,95.4,1021.3,295.9,1.8,2.5,311.6,0.00,7.4,12.6,"01:01:36",1
"23/11/16","01:20",0.0,7.7,95.5,1021.3,286.8,1.6,2.4,308.4,0.00,7.1,12.7,"01:10:16",1
"23/11/16","01:30",0.0,7.6,95.7,1020.8,286.3,2.0,2.0,295.5,0.00,7.0,12.6,"01:29:44",1
"23/11/16","01:40",0.0,7.4,95.8,1020.6,299.0,2.1,2.7,295.0,0.00,6.8,12.5,"01:33:28",1
"23/11/16","01:50",0.0,7.3,95.9,1021.1,298.2,2.2,2.6,309.3,0.00,6.7,12.5,"01:45:04",1
"23/11/16","02:00",0.0,7.0,96.0,1020.6,306.0,2.1,2.7,321.1,0.00,6.4,12.4,"01:50:48",1
"23/11/16","02:10",0.0,6.7,96.0,1020.6,301.1,1.8,2.4,309.4,0.00,6.1,12.5,"02:00:40",1
"23/11/16","02:20",0.0,6.3,96.3,1020.8,304.2,1.8,2.2,313.0,0.00,5.8,12.4,"02:16:32",1
"23/11/16","02:30",0.0,6.1,96.4,1020.8,300.6,1.8,2.5,310.0,0.00,5.6,12.4,"02:20:56",1
"23/11/16","02:40",0.0,5.9,96.5,1020.4,307.4,2.0,2.6,314.7,0.00,5.4,12.3,"02:39:44",1
"23/11/16","02:50",0.0,5.8,96.8,1020.4,317.1,2.3,2.7,318.3,0.00,5.4,12.3,"02:44:48",1
"23/11/16","03:00",0.0,5.9,96.8,1020.4,304.1,2.2,2.5,314.5,0.00,5.5,12.2,"02:50:16",1
"23/11/16","03:10",0.0,6.4,96.8,1020.8,293.2,2.3,4.0,311.5,0.00,6.0,12.1,"03:01:20",1
"23/11/16","03:20",0.0,6.5,96.9,1020.8,289.3,2.2,3.7,315.1,0.00,6.1,12.3,"03:19:04",1
"23/11/16","03:30",0.0,6.8,97.0,1020.4,305.4,2.8,3.7,317.5,0.00,6.4,12.2,"03:20:02",1
"23/11/16","03:40",0.0,7.0,96.8,1020.6,302.4,2.6,4.1,322.3,0.00,6.6,12.3,"03:33:44",1
"23/11/16","03:50",0.0,6.6,96.8,1020.1,295.2,1.5,2.6,315.6,0.00,6.2,12.0,"03:43:44",1
"23/11/16","04:00",0.0,6.0,97.0,1020.6,295.1,2.0,2.7,321.9,0.00,5.6,12.0,"03:59:28",1
"23/11/16","04:10",0.0,5.7,97.3,1020.1,308.8,2.2,3.2,323.5,0.00,5.3,12.1,"04:08:56",1
"23/11/16","04:20",0.0,5.6,97.4,1020.4,310.9,2.3,3.4,319.5,0.00,5.3,11.9,"04:11:20",1
"23/11/16","04:30",0.0,5.3,97.4,1020.1,290.0,1.2,1.8,312.4,0.00,5.0,12.1,"04:20:08",1
"23/11/16","04:40",0.0,5.2,97.6,1019.9,298.2,1.7,3.1,323.7,0.00,4.9,11.8,"04:32:56",1
"23/11/16","04:50",0.0,5.0,97.7,1019.9,287.9,1.1,1.6,283.4,0.00,4.7,12.0,"04:47:28",1
"23/11/16","05:00",0.0,4.8,97.9,1019.4,301.9,1.7,2.8,321.3,0.00,4.5,11.9,"04:59:52",1
"23/11/16","05:10",0.0,4.9,97.9,1019.7,311.5,2.0,2.6,329.3,0.00,4.6,11.9,"05:00:08",1
"23/11/16","05:20",0.0,4.8,97.9,1019.9,289.9,1.1,1.8,289.4,0.00,4.5,11.8,"05:11:36",1
"23/11/16","05:30",0.0,4.6,98.0,1019.7,303.2,2.0,2.6,321.5,0.00,4.4,11.7,"05:21:52",1
"23/11/16","05:40",0.0,5.1,97.6,1019.9,290.7,2.0,2.5,310.9,0.00,4.8,11.9,"05:36:24",1
"23/11/16","05:50",0.0,5.4,98.0,1019.4,296.6,2.2,2.9,315.4,0.00,5.1,11.8,"05:43:52",1
"23/11/16","06:00",0.0,5.7,97.4,1019.4,281.7,1.8,2.1,294.1,0.00,5.4,11.5,"05:50:16",1
"23/11/16","06:10",0.0,5.4,98.0,1019.9,291.9,2.1,2.7,306.2,0.00,5.1,11.7,"06:06:08",1
"23/11/16","06:20",0.0,5.7,97.5,1019.9,306.8,2.2,3.1,322.0,0.00,5.4,11.6,"06:13:20",1
"23/11/16","06:30",0.0,5.5,98.1,1020.1,306.3,1.8,2.9,314.6,0.00,5.3,11.6,"06:24:40",1
"23/11/16","06:40",0.0,5.5,97.5,1020.1,310.7,1.7,2.6,315.1,0.00,5.2,11.6,"06:38:24",1
"23/11/16","06:50",0.0,4.7,98.2,1020.1,296.3,2.1,2.8,315.1,0.00,4.5,11.5,"06:41:04",1
"23/11/16","07:00",0.0,5.5,97.9,1020.4,296.6,2.0,3.2,289.0,0.00,5.2,11.4,"06:54:56",1
"23/11/16","07:10",0.0,5.6,98.3,1020.8,314.6,0.7,2.4,324.5,0.00,5.4,11.5,"07:00:48",1
"23/11/16","07:20",0.0,5.9,97.8,1020.6,318.4,0.7,1.7,309.6,0.00,5.6,11.5,"07:16:54",1
"23/11/16","07:30",0.0,6.5,98.4,1021.1,288.0,0.5,0.9,291.6,0.01,6.3,11.4,"07:20:54",1
"23/11/16","07:40",0.0,7.2,97.7,1021.3,273.4,0.8,1.3,319.4,0.02,6.9,11.3,"07:39:28",1
"23/11/16","07:50",0.0,7.6,98.1,1020.8,315.5,1.3,1.9,314.4,0.03,7.4,11.5,"07:47:04",1
"23/11/16","08:00",0.0,8.0,97.5,1021.1,266.9,1.5,2.8,252.3,0.05,7.7,11.2,"07:59:04",1
"23/11/16","08:10",0.0,8.3,98.1,1021.3,287.8,1.7,2.5,317.5,0.06,8.1,11.3,"08:02:26",1
"23/11/16","08:20",0.0,8.9,97.4,1021.3,268.2,1.2,1.9,257.4,0.08,8.6,11.4,"08:10:58",1
"23/11/16","08:30",0.0,9.4,97.6,1021.8,254.4,0.8,1.7,262.8,0.11,9.1,11.5,"08:22:40",1
"23/11/16","08:40",0.0,10.2,97.4,1021.8,267.2,0.5,1.0,275.2,0.14,9.8,11.4,"08:34:40",1
"23/11/16","08:50",0.0,11.1,96.9,1022.0,293.9,0.5,1.0,278.8,0.16,10.7,11.4,"08:42:48",1
"23/11/16","09:00",0.0,11.6,96.4,1021.5,253.7,0.5,1.0,235.7,0.19,11.1,11.3,"08:51:28",1
"23/11/16","09:10",0.0,11.4,95.1,1021.5,235.5,0.6,1.2,246.1,0.22,10.7,11.4,"09:04:24",1
"23/11/16","09:20",0.0,11.9,94.9,1021.5,206.5,0.5,1.2,113.6,0.22,11.1,11.5,"09:13:20",1
"23/11/16","09:30",0.0,12.4,93.3,1021.3,240.7,0.5,1.2,252.8,0.24,11.4,11.5,"09:26:32",1
"23/11/16","09:40",0.0,13.0,91.3,1021.3,249.0,0.5,1.3,218.3,0.26,11.7,11.6,"09:39:52",1
"23/11/16","09:50",0.0,13.7,89.4,1021.5,241.4,0.5,2.4,245.8,0.29,12.0,11.5,"09:40:16",1
"23/11/16","10:00",0.0,14.0,84.1,1021.8,240.2,1.0,2.7,234.0,0.30,11.4,11.8,"09:57:52",1
"23/11/16","10:10",0.0,14.6,79.3,1021.8,232.6,0.7,1.8,223.5,0.29,11.1,11.8,"10:00:08",1
"23/11/16","10:20",0.0,15.1,75.5,1020.8,241.2,0.6,1.7,269.5,0.27,10.8,11.7,"10:16:32",1
"23/11/16","10:30",0.0,15.1,71.9,1021.1,241.9,1.0,2.7,240.3,0.27,10.1,11.8,"10:26:32",1
"23/11/16","10:40",0.0,15.0,72.1,1020.8,239.8,0.7,2.2,200.9,0.19,10.1,11.9,"10:35:20",1
"23/11/16","10:50",0.0,15.2,71.0,1020.4,226.6,0.7,1.9,211.4,0.22,10.0,12.1,"10:45:52",1
"23/11/16","11:00",0.0,15.3,69.4,1020.1,128.5,0.7,2.0,153.9,0.20,9.8,12.0,"10:58:24",1
"23/11/16","11:10",0.0,15.6,68.1,1019.9,244.6,0.8,2.2,242.0,0.24,9.8,12.1,"11:02:24",1
"23/11/16","11:20",0.0,15.7,68.0,1019.7,165.5,0.8,2.2,249.1,0.20,9.9,12.2,"11:10:40",1
"23/11/16","11:30",0.0,16.1,66.0,1019.4,190.2,0.7,1.8,235.7,0.30,9.8,12.2,"11:27:12",1
"23/11/16","11:40",0.0,16.1,64.7,1019.0,231.0,0.8,2.4,88.3,0.23,9.5,12.4,"11:35:28",1
"23/11/16","11:50",0.0,16.3,63.7,1018.5,211.8,0.8,2.2,212.7,0.28,9.5,12.3,"11:43:52",1
"23/11/16","12:00",0.0,16.2,63.0,1018.5,182.6,0.7,1.7,175.2,0.16,9.2,12.3,"11:57:36",1
"23/11/16","12:10",0.0,15.7,64.4,1018.2,205.7,1.1,2.4,225.7,0.19,9.0,12.6,"12:08:08",1
"23/11/16","12:20",0.0,16.4,63.7,1018.2,229.5,1.3,2.7,223.3,0.31,9.5,12.7,"12:14:16",1
"23/11/16","12:30",0.0,17.0,62.4,1017.8,232.0,0.8,2.4,247.7,0.32,9.8,12.7,"12:20:24",1
"23/11/16","12:40",0.0,17.1,60.7,1017.5,229.5,1.5,3.2,244.5,0.36,9.5,12.7,"12:37:20",1
"23/11/16","12:50",0.0,17.6,57.3,1017.5,245.0,1.0,2.9,239.8,0.32,9.1,12.7,"12:49:20",1
"23/11/16","13:00",0.0,17.0,55.6,1016.6,234.8,1.6,3.3,233.3,0.25,8.1,12.9,"12:56:24",1
"23/11/16","13:10",0.0,17.7,53.6,1016.8,235.9,1.0,2.7,216.0,0.34,8.2,12.8,"13:08:24",1
"23/11/16","13:20",0.0,18.2,51.8,1016.4,179.3,1.0,2.2,194.9,0.32,8.2,13.1,"13:14:32",1
"23/11/16","13:30",0.0,18.0,51.9,1016.6,196.5,0.8,2.0,210.5,0.26,8.0,13.2,"13:29:36",1
"23/11/16","13:40",0.0,17.6,53.6,1016.4,205.8,0.6,2.8,121.9,0.14,8.1,13.2,"13:30:48",1
"23/11/16","13:50",0.0,17.3,53.4,1016.4,172.5,0.8,2.1,147.5,0.16,7.8,13.1,"13:42:56",1
"23/11/16","14:00",0.0,17.2,53.4,1016.1,192.6,0.8,2.0,209.8,0.11,7.7,13.1,"13:51:04",1
"23/11/16","14:10",0.0,16.8,52.9,1015.9,166.7,0.7,1.7,147.8,0.10,7.2,13.2,"14:03:20",1
"23/11/16","14:20",0.0,17.0,53.3,1016.1,227.6,0.8,1.8,210.4,0.12,7.5,13.3,"14:12:08",1
"23/11/16","14:30",0.0,17.1,51.7,1015.9,234.3,1.6,3.3,254.3,0.14,7.1,13.5,"14:26:48",1
"23/11/16","14:40",0.0,17.1,51.9,1016.4,244.5,1.1,2.7,237.1,0.10,7.2,13.4,"14:39:04",1
"23/11/16","14:50",0.0,17.1,52.5,1016.1,272.1,1.2,2.5,239.6,0.10,7.4,13.5,"14:44:00",1
"23/11/16","15:00",0.0,17.2,53.7,1016.1,223.2,0.8,2.1,229.2,0.10,7.8,13.6,"14:57:20",1
"23/11/16","15:10",0.0,16.9,53.0,1015.9,208.9,0.8,2.1,253.6,0.07,7.3,13.6,"15:01:20",1
"23/11/16","15:20",0.0,16.8,54.7,1015.9,246.6,0.8,2.1,234.7,0.07,7.7,13.6,"15:19:36",1
"23/11/16","15:30",0.0,16.7,54.0,1015.6,241.4,1.0,2.4,250.8,0.06,7.4,13.6,"15:21:04",1
"23/11/16","15:40",0.0,16.7,53.8,1015.9,283.3,1.2,2.0,245.3,0.05,7.3,13.6,"15:30:16",1
"23/11/16","15:50",0.0,16.8,55.5,1015.9,303.7,0.8,1.4,343.4,0.03,7.9,13.7,"15:48:56",1
"23/11/16","16:00",0.0,16.4,57.8,1015.6,322.2,1.2,2.0,330.6,0.01,8.1,13.8,"15:52:40",1
"23/11/16","16:10",0.0,15.8,64.0,1015.4,329.2,1.0,1.4,335.5,0.00,9.1,13.7,"16:08:42",1
"23/11/16","16:20",0.0,14.9,67.2,1015.6,327.2,1.1,1.6,312.2,0.00,8.9,13.8,"16:13:20",1
"23/11/16","16:30",0.0,14.4,69.4,1015.4,299.5,1.0,1.9,312.6,0.00,8.9,13.7,"16:26:50",1
"23/11/16","16:40",0.0,14.1,70.8,1014.9,293.1,1.1,2.1,306.0,0.00,8.9,13.6,"16:36:08",1
"23/11/16","16:50",0.0,14.0,71.8,1015.4,284.6,1.1,1.7,296.3,0.00,9.0,13.7,"16:46:24",1
"23/11/16","17:00",0.0,13.7,72.4,1015.4,294.5,1.1,1.4,309.0,0.00,8.9,13.6,"16:53:44",1
"23/11/16","17:10",0.0,13.5,73.3,1015.2,299.4,1.0,1.6,318.9,0.00,8.9,13.7,"17:07:52",1
"23/11/16","17:20",0.0,13.3,74.3,1014.5,298.2,0.8,1.2,318.1,0.00,8.9,13.6,"17:11:12",1
"23/11/16","17:30",0.0,12.7,75.8,1014.5,282.3,1.0,1.6,331.5,0.00,8.6,13.7,"17:20:40",1
"23/11/16","17:40",0.0,12.5,77.3,1014.5,296.5,1.2,1.6,306.8,0.00,8.7,13.6,"17:34:24",1
"23/11/16","17:50",0.0,12.5,78.7,1014.2,286.3,1.2,1.7,280.2,0.00,8.9,13.7,"17:44:14",1
"23/11/16","18:00",0.0,12.5,79.6,1014.5,279.9,1.2,1.7,302.9,0.00,9.1,13.6,"17:53:02",1
"23/11/16","18:10",0.0,12.6,79.9,1014.5,295.4,1.1,1.6,323.2,0.00,9.3,13.6,"18:08:42",1
"23/11/16","18:20",0.0,12.6,80.4,1014.2,322.7,0.7,1.7,303.2,0.00,9.4,13.7,"18:10:36",1
"23/11/16","18:30",0.0,12.5,80.8,1014.2,300.0,1.2,2.0,336.0,0.00,9.3,13.5,"18:23:24",1
"23/11/16","18:40",0.0,12.5,81.5,1014.5,290.1,1.1,1.7,267.5,0.00,9.5,13.5,"18:39:00",1
"23/11/16","18:50",0.0,12.4,81.8,1014.2,292.4,1.3,2.1,313.8,0.00,9.4,13.6,"18:43:46",1
"23/11/16","19:00",0.0,12.4,82.1,1014.0,308.7,1.5,2.4,326.4,0.00,9.5,13.6,"18:58:46",1
"23/11/16","19:10",0.0,12.5,82.3,1014.0,319.2,1.5,1.8,302.6,0.00,9.6,13.4,"19:01:24",1
"23/11/16","19:20",0.0,12.4,82.7,1014.2,297.5,1.2,2.0,316.9,0.00,9.6,13.4,"19:16:16",1
"23/11/16","19:30",0.0,12.3,83.1,1014.2,277.2,0.6,1.3,285.9,0.00,9.6,13.6,"19:23:50",1
"23/11/16","19:40",0.0,12.3,83.6,1013.5,291.6,1.2,1.8,320.4,0.00,9.6,13.7,"19:38:36",1
"23/11/16","19:50",0.0,12.5,84.1,1013.5,325.4,1.3,2.0,324.5,0.00,9.9,13.4,"19:41:32",1
"23/11/16","20:00",0.0,12.4,84.6,1013.3,294.3,1.1,1.7,324.8,0.00,9.9,13.6,"19:51:56",1
"23/11/16","20:10",0.0,12.3,85.3,1013.8,274.0,1.2,1.7,282.3,0.00,9.9,13.4,"20:07:56",1
"23/11/16","20:20",0.0,12.4,86.0,1013.5,290.6,1.7,2.4,315.0,0.00,10.2,13.5,"20:19:10",1
"23/11/16","20:30",0.0,12.4,86.4,1013.0,290.3,1.6,2.1,323.9,0.00,10.2,13.6,"20:20:50",1
"23/11/16","20:40",0.0,12.4,86.5,1012.8,284.8,0.7,1.1,275.4,0.00,10.3,13.4,"20:30:08",1
"23/11/16","20:50",0.0,12.4,86.7,1013.0,271.9,1.2,1.8,265.4,0.00,10.3,13.5,"20:48:24",1
"23/11/16","21:00",0.0,12.4,86.8,1012.8,263.4,1.0,2.0,254.2,0.00,10.3,13.6,"20:58:56",1
"23/11/16","21:10",0.0,12.4,86.9,1012.6,265.6,1.0,2.2,313.0,0.00,10.3,13.6,"21:00:30",1
"23/11/16","21:20",0.0,12.4,87.1,1012.3,269.6,1.2,2.1,254.7,0.00,10.4,13.6,"21:19:50",1
"23/11/16","21:30",0.0,12.4,87.1,1012.3,278.3,1.2,1.9,254.8,0.00,10.4,13.4,"21:20:08",1
"23/11/16","21:40",0.0,12.5,87.0,1012.3,285.1,1.1,1.8,254.8,0.00,10.4,13.4,"21:32:10",1
"23/11/16","21:50",0.0,12.5,87.1,1011.9,269.2,1.0,1.6,263.9,0.00,10.5,13.6,"21:47:20",1
"23/11/16","22:00",0.0,12.5,87.3,1011.6,274.0,1.0,1.8,263.4,0.00,10.5,13.3,"21:53:12",1
"23/11/16","22:10",0.0,12.6,87.2,1012.1,281.5,1.5,2.4,310.0,0.00,10.6,13.6,"22:06:36",1
"23/11/16","22:20",0.0,12.7,87.2,1011.9,292.9,1.0,1.8,290.1,0.00,10.7,13.4,"22:15:12",1
"23/11/16","22:30",0.2,12.6,87.2,1011.2,287.5,1.0,1.9,264.8,0.00,10.6,13.5,"22:28:06",1
"23/11/16","22:40",0.0,12.6,87.6,1011.4,282.1,1.2,1.9,301.1,0.00,10.6,13.4,"22:36:56",1
"23/11/16","22:50",0.0,12.5,88.2,1010.9,306.4,1.3,1.8,313.9,0.00,10.6,13.5,"22:45:12",1
"23/11/16","23:00",0.2,12.4,88.7,1010.2,280.6,1.1,1.6,294.4,0.00,10.6,13.3,"22:54:24",1
"23/11/16","23:10",0.2,12.5,89.4,1010.4,276.7,1.3,1.8,284.5,0.00,10.8,13.5,"23:04:48",1
"23/11/16","23:20",0.2,12.5,90.2,1010.7,287.8,1.3,2.5,319.2,0.00,11.0,13.3,"23:12:00",1
"23/11/16","23:30",0.2,12.4,90.7,1010.9,306.6,1.1,1.7,327.6,0.00,11.0,13.4,"23:21:44",1
"23/11/16","23:40",0.2,12.4,91.3,1010.4,305.4,1.5,2.2,325.0,0.00,11.1,13.5,"23:32:48",1
"23/11/16","23:50",0.4,12.3,91.6,1010.4,305.3,1.3,2.5,308.0,0.00,11.0,13.5,"23:43:20",1
"23/11/16","24:00",0.4,12.3,92.0,1010.2,286.3,1.2,1.6,305.0,0.00,11.1,13.5,"23:56:32",1
